User: anonymous
Location: Unspecified
(0.0000°N, 0.0000°E)
Time: 17:52:07
(UTC+00:00)
Language:

HO-68 - Orbit

View from above orbital plane
View from above orbital plane
View from above satellite
View from above satellite

Ground track
Ground track

The orbit data is extracted from the following two-line orbital elements,

1 36122U 09072B   14262.12992735 -.00000043  00000-0  00000+0 0  9497
2 36122 100.2393 311.1004 0007631 023.2029 336.9428 13.16318192228797
Epoch (UTC): 19 September 2014 03:07:05
Eccentricity: 0.0007631
inclination: 100.2393°
perigee height: 1193 km
apogee height: 1204 km
right ascension of ascending node: 311.1004°
argument of perigee: 23.2029°
revolutions per day: 13.16318192
mean anomaly at epoch: 336.9428°
orbit number at epoch: 22879

The dashed part of the orbit path shows where the satellite is in the earth's shadow,  

DLR